Location: Recife
(8.0585°S, 34.8848°W)
Time: 04:44:01
(UTC-03:00)

Courier 1B - Pass Details

Date: 23 April 2026
Orbit: 962 x 1209 km, 28.3° (Epoch: 14 May)

Event Time Altitude Azimuth Distance (km) Brightness Sun altitude
Rises 09:37:47 0° 229° (SW) 4,107 10.4 57.6°
Reaches altitude 10° 09:41:04 10° 219° (SW) 3,149 10.0 58.3°
Maximum altitude 09:47:48 30° 160° (SSE) 2,002 9.4 59.5°
Drops below altitude 10° 09:54:24 10° 101° (E) 3,093 10.5 60.7°
Sets 09:57:36 0° 91° (E) 4,025 11.0 61.2°
